Albion, NE

8:00 AM CST on December 11, 2016 (GMT -0600)
Albion Municipal

Weather History for KBVN - July, 2014

Change the Weather History Date:

Monday, July 14, 2014

  Actual Average (KOFK) Record (KOFK)
Temperature  
Mean Temperature 62 °F -  
Max Temperature 72 °F 88 °F 105 °F (1936)
Min Temperature 53 °F 64 °F 46 °F (1943)
Degree Days  
Heating Degree Days 3    
Growing Degree Days 12 (Base 50)    
Moisture  
Dew Point 51 °F    
Average Humidity 62    
Maximum Humidity 90    
Minimum Humidity 37    
Precipitation  
Precipitation 0.01 in - - ()
Sea Level Pressure  
Sea Level Pressure 30.13 in    
Wind  
Wind Speed 6 mph (NNW)    
Max Wind Speed 18 mph    
Max Gust Speed 29 mph    
Visibility 10 miles    
Events Rain , Thunderstorm    
Averages and records for this station are not official NWS values.
T = Trace of Precipitation, MM = Missing Value Source: NWS Daily Summary

Daily Weather History Graph

Daily Weather History Graph

Search for Another Location

Airport or City:

Trip Planner

Search our weather history database for the weather conditions in past years. The results will help you decide how hot, cold, wet, or windy it might be!

Date:

Astronomy

Jul. 14, 2014 Rise Set
Actual Time 6:10 AM CDT 9:05 PM CDT
Civil Twilight 5:36 AM CDT 9:38 PM CDT
Nautical Twilight 4:54 AM CDT 10:20 PM CDT
Astronomical Twilight 4:05 AM CDT 11:09 PM CDT
Moon 10:33 PM CDT (7/14) 8:57 AM CDT (7/14)
Length of Visible Light 16h 02m
Length of Day
14h 55m
Waning Gibbous, 93% of the Moon is Illuminated
Jul 14
Waning Gibbous
Jul 18
Last Quarter
Jul 26
New
Aug 3
First Quarter
Aug 10
Full

Hourly Weather History & Observations

Time (CDT) Temp. Dew Point Humidity Pressure Visibility Wind Dir Wind Speed Gust Speed Precip Events Conditions
12:15 AM 66.4 °F 63.3 °F 90% 30.03 in 10.0 mi Calm Calm - N/A Rain Light Rain
12:35 AM 66.7 °F 63.1 °F 88% 30.04 in 10.0 mi Calm Calm - N/A   Mostly Cloudy
12:55 AM 67.1 °F 63.7 °F 89% 30.05 in 10.0 mi North 3.5 mph - N/A Rain Light Rain
1:15 AM 68.0 °F 61.9 °F 81% 30.06 in 10.0 mi North 3.5 mph - N/A   Scattered Clouds
1:35 AM 68.9 °F 58.3 °F 69% 30.06 in 10.0 mi NNE 3.5 mph - N/A   Mostly Cloudy
1:55 AM 67.3 °F 59.7 °F 77% 30.07 in 10.0 mi Calm Calm - N/A   Overcast
2:15 AM 66.9 °F 60.1 °F 79% 30.06 in 10.0 mi Calm Calm - N/A Thunderstorm Overcast
2:35 AM 67.6 °F 58.8 °F 73% 30.07 in 10.0 mi Calm Calm - N/A   Overcast
2:55 AM 66.4 °F 62.1 °F 86% 30.08 in 7.0 mi NNW 3.5 mph - N/A Rain Rain
3:15 AM 65.5 °F 59.7 °F 82% 30.06 in 10.0 mi North 5.8 mph - N/A   Overcast
3:35 AM 64.6 °F 59.5 °F 84% 30.06 in 10.0 mi North 5.8 mph - N/A   Mostly Cloudy
3:55 AM 64.4 °F 58.3 °F 80% 30.08 in 10.0 mi North 5.8 mph - N/A   Scattered Clouds
4:15 AM 63.7 °F 57.4 °F 80% 30.08 in 10.0 mi NNW 3.5 mph - N/A   Mostly Cloudy
4:35 AM 63.0 °F 55.9 °F 78% 30.08 in 10.0 mi North 5.8 mph - N/A   Overcast
4:55 AM 62.6 °F 56.5 °F 80% 30.08 in 10.0 mi NW 3.5 mph - N/A   Overcast
5:15 AM 61.7 °F 56.7 °F 84% 30.07 in 10.0 mi Calm Calm - N/A   Overcast
5:35 AM 61.9 °F 57.4 °F 85% 30.07 in 10.0 mi Calm Calm - N/A   Overcast
5:55 AM 61.9 °F 57.7 °F 86% 30.08 in 10.0 mi Calm Calm - N/A   Overcast
6:15 AM 62.1 °F 57.7 °F 86% 30.08 in 10.0 mi WNW 3.5 mph - N/A   Overcast
6:35 AM 62.1 °F 57.4 °F 85% 30.08 in 10.0 mi Calm Calm - N/A   Overcast
6:55 AM 62.2 °F 58.1 °F 86% 30.08 in 10.0 mi Calm Calm - N/A   Overcast
7:15 AM 63.0 °F 56.7 °F 80% 30.08 in 10.0 mi NNW 3.5 mph - N/A   Overcast
7:35 AM 63.1 °F 56.3 °F 78% 30.09 in 10.0 mi NNW 6.9 mph - N/A   Overcast
7:55 AM 63.5 °F 56.8 °F 79% 30.10 in 10.0 mi NNW 5.8 mph - N/A   Overcast
8:15 AM 64.6 °F 55.9 °F 74% 30.11 in 10.0 mi NNW 6.9 mph - N/A   Overcast
8:35 AM 66.6 °F 54.7 °F 66% 30.11 in 10.0 mi NNW 8.1 mph - N/A   Scattered Clouds
8:55 AM 67.1 °F 50.9 °F 56% 30.12 in 10.0 mi NNW 10.4 mph - N/A   Scattered Clouds
9:15 AM 67.6 °F 49.6 °F 52% 30.12 in 10.0 mi North 9.2 mph 16.1 mph N/A   Clear
9:35 AM 68.0 °F 48.6 °F 50% 30.13 in 10.0 mi NNW 12.7 mph 18.4 mph N/A   Clear
9:55 AM 68.2 °F 48.6 °F 49% 30.13 in 10.0 mi NNW 13.8 mph 19.6 mph N/A   Clear
10:15 AM 68.5 °F 49.3 °F 50% 30.14 in 10.0 mi North 9.2 mph 18.4 mph N/A   Clear
10:35 AM 68.0 °F 49.1 °F 51% 30.15 in 10.0 mi North 12.7 mph 20.7 mph N/A   Clear
10:55 AM 68.9 °F 49.3 °F 50% 30.15 in 10.0 mi North 11.5 mph 17.3 mph N/A   Clear
11:15 AM 68.9 °F 48.6 °F 48% 30.16 in 10.0 mi North 15.0 mph 20.7 mph N/A   Clear
11:35 AM 69.1 °F 49.8 °F 50% 30.16 in 10.0 mi NNW 16.1 mph 19.6 mph N/A   Clear
11:55 AM 69.3 °F 48.2 °F 47% 30.17 in 10.0 mi NNW 15.0 mph 21.9 mph N/A   Clear
12:15 PM 69.4 °F 49.5 °F 49% 30.16 in 10.0 mi NNW 15.0 mph 21.9 mph N/A   Clear
12:35 PM 69.3 °F 49.3 °F 49% 30.17 in 10.0 mi NNW 16.1 mph 23.0 mph N/A   Scattered Clouds
12:55 PM 69.3 °F 48.6 °F 48% 30.17 in 10.0 mi North 13.8 mph 21.9 mph N/A   Scattered Clouds
1:15 PM 69.4 °F 46.9 °F 45% 30.17 in 10.0 mi North 17.3 mph 25.3 mph N/A   Scattered Clouds
1:35 PM 70.7 °F 46.8 °F 42% 30.17 in 10.0 mi North 18.4 mph 26.5 mph N/A   Scattered Clouds
1:55 PM 69.8 °F 47.3 °F 45% 30.17 in 10.0 mi North 13.8 mph 23.0 mph N/A   Scattered Clouds
2:15 PM 71.2 °F 47.8 °F 43% 30.17 in 10.0 mi North 16.1 mph 23.0 mph N/A   Mostly Cloudy
2:35 PM 70.3 °F 46.2 °F 42% 30.17 in 10.0 mi NNW 15.0 mph 28.8 mph N/A   Scattered Clouds
2:55 PM 70.3 °F 44.4 °F 39% 30.17 in 10.0 mi North 18.4 mph 24.2 mph N/A   Scattered Clouds
3:15 PM 70.7 °F 45.5 °F 40% 30.17 in 10.0 mi North 16.1 mph 26.5 mph N/A   Scattered Clouds
3:35 PM 70.5 °F 45.1 °F 40% 30.17 in 10.0 mi North 17.3 mph 26.5 mph N/A   Scattered Clouds
3:55 PM 70.5 °F 45.9 °F 41% 30.17 in 10.0 mi North 11.5 mph 23.0 mph N/A   Scattered Clouds
4:15 PM 71.2 °F 46.0 °F 40% 30.17 in 10.0 mi NNW 15.0 mph 24.2 mph N/A   Scattered Clouds
4:55 PM 71.2 °F 45.3 °F 39% 30.17 in 10.0 mi NNW 16.1 mph 24.2 mph N/A   Scattered Clouds
5:35 PM 71.4 °F 44.6 °F 38% 30.16 in 10.0 mi NNW 18.4 mph 23.0 mph N/A   Clear
5:55 PM 69.8 °F 45.1 °F 41% 30.17 in 10.0 mi NNW 12.7 mph 21.9 mph N/A   Scattered Clouds
6:15 PM 71.1 °F 44.2 °F 38% 30.17 in 10.0 mi NNW 15.0 mph 24.2 mph N/A   Mostly Cloudy
6:35 PM 70.2 °F 44.8 °F 40% 30.16 in 10.0 mi North 13.8 mph 18.4 mph N/A   Mostly Cloudy
6:55 PM 70.0 °F 44.1 °F 39% 30.17 in 10.0 mi North 13.8 mph 19.6 mph N/A   Scattered Clouds
7:15 PM 69.3 °F 42.1 °F 37% 30.17 in 10.0 mi North 12.7 mph 18.4 mph N/A   Clear
7:35 PM 69.1 °F 43.7 °F 40% 30.17 in 10.0 mi North 12.7 mph 16.1 mph N/A   Clear
7:55 PM 68.0 °F 43.2 °F 41% 30.17 in 10.0 mi North 9.2 mph 16.1 mph N/A   Clear
8:15 PM 66.6 °F 44.4 °F 45% 30.18 in 10.0 mi North 8.1 mph - N/A   Clear
8:35 PM 65.3 °F 44.6 °F 47% 30.18 in 10.0 mi North 6.9 mph - N/A   Clear
8:55 PM 63.0 °F 46.0 °F 54% 30.18 in 10.0 mi North 4.6 mph - N/A   Clear
9:35 PM 59.4 °F 46.9 °F 63% 30.18 in 10.0 mi North 5.8 mph - N/A   Clear
9:55 PM 58.8 °F 46.8 °F 64% 30.20 in 10.0 mi Calm Calm - N/A   Clear
10:15 PM 57.9 °F 46.9 °F 67% 30.20 in 10.0 mi Calm Calm - N/A   Clear
10:35 PM 56.3 °F 48.2 °F 74% 30.21 in 10.0 mi Calm Calm - N/A   Clear
10:55 PM 54.9 °F 48.7 °F 80% 30.22 in 10.0 mi Calm Calm - N/A   Clear
11:15 PM 54.3 °F 48.4 °F 80% 30.22 in 10.0 mi NNW 3.5 mph - N/A   Clear
11:35 PM 53.4 °F 48.2 °F 82% 30.22 in 10.0 mi NW 4.6 mph - N/A   Clear
11:55 PM 53.4 °F 48.2 °F 82% 30.23 in 10.0 mi NNW 3.5 mph - N/A   Clear